Weather observations for the past three days for
Gilmer, Fox Stephens Field - Gilmer Municipal Airport
Imperial (Metric)
Date Time (cdt) Wind (mph) Vis. (mi.) Weather Sky Cond. Temperature (ºF) Relative Humidity Wind Chill (°F) Heat Index (°F) Pressure Precipitation (in)
Air Dwpt 6 hour altimeter (in) sea level (mb) 1 hr 3 hr 6 hr
Max. Min.
22 12:15 NE 3 10.00 Overcast OVC009 77.9 71.8 82% 80 30.01 0.0
22 11:55 E 3 10.00 Mostly Cloudy BKN007 77 72.1 85% 78 30.02 0.0
22 11:35 Calm 10.00 Partly Cloudy SCT005 SCT009 75.7 72 88% 76 30.02 0.0
22 11:15 S 3 10.00 Light Rain BKN001 BKN006 74.3 71.6 91% 30.02 0.0
22 10:55 E 3 4.00 Rain BKN003 BKN006 OVC011 74.5 71.6 91% 30.02 0.0
22 10:35 Calm 10.00 Rain BKN001 OVC011 74.5 70.9 89% 30.04 0.0
22 10:15 Calm 5.00 Light Rain BKN001 74.7 71.2 89% 30.04 0.0
22 09:35 Calm 5.00 Fair with Haze CLR 75.6 71.4 87% 76 30.03 0.0
22 09:15 Calm 10.00 Fair CLR 75.9 70.7 84% 77 30.02 0.0
22 08:55 SW 3 10.00 Fair CLR 76.3 71.1 84% 77 30.02 0.0
22 08:35 Calm 10.00 Fair CLR 75.6 70.9 85% 76 30.01 0.0
22 08:15 Calm 10.00 Fair CLR 73.9 70.7 90% 30 0.0
22 07:55 Calm 7.00 Fair CLR 72.5 70 92% 29.99 0.0
22 07:35 Calm 0.00 NULL NULL 72.5 70 92% 29.99 0.0
22 06:55 Calm 10.00 Fair CLR 72.1 69.6 73.2 71.2 92% 29.99 0.0
22 06:35 Calm 10.00 Fair CLR 72.1 69.4 91% 29.99 0.0
22 06:15 Calm 10.00 Fair CLR 72 70 94% 29.99 0.0
22 05:55 Calm 10.00 Fair CLR 71.6 69.8 94% 29.99 0.0
22 05:35 Calm 10.00 Fair CLR 72 70.2 94% 29.99 0.0
22 05:15 Calm 7.00 Fair CLR 71.6 69.4 93% 29.99 0.0
22 04:55 Calm 5.00 Fog/Mist CLR 71.2 69.3 94% 29.99 0.0
22 04:35 Calm 5.00 Fog/Mist CLR 71.4 69.1 92% 30 0.0
22 04:15 Calm 10.00 Fair CLR 71.8 69.8 94% 29.99 0.0
22 03:55 Calm 10.00 Fair CLR 72.1 69.8 92% 30 0.0
22 03:35 Calm 10.00 Fair CLR 72.1 69.8 92% 29.99 0.0
22 03:15 Calm 10.00 Fair CLR 72.3 69.8 92% 29.99 0.0
22 02:55 Calm 10.00 Fair CLR 72.1 70 93% 29.99 0.0
22 02:35 Calm 7.00 Fair CLR 72.5 70.3 93% 29.98 0.0
22 02:15 Calm 7.00 Fair CLR 72.1 70.2 94% 29.98 0.0
22 01:55 Calm 7.00 Fair CLR 72.5 70.2 92% 29.99 0.0
22 01:35 Calm 10.00 Fair CLR 72.5 70.3 93% 30 0.0
22 01:15 Calm 10.00 Fair CLR 73 70.2 91% 30.01 0.0
22 00:55 Calm 10.00 Fair CLR 72.5 70.2 85.8 72.5 92% 30 0.0
22 00:35 Calm 10.00 Fair CLR 73 70.2 91% 30 0.0
22 00:15 Calm 10.00 Fair CLR 72.9 70.2 91% 30 0.0
21 23:55 Calm 10.00 Fair CLR 73 70.3 91% 30.01 0.0
21 23:35 Calm 10.00 Fair CLR 73.4 70.3 90% 30.01 0.0
21 23:15 Calm 10.00 Fair CLR 73.4 70.9 92% 30.02 0.0
21 22:55 Calm 10.00 Fair CLR 73.4 70.5 91% 30.02 0.0
21 22:35 Calm 10.00 Partly Cloudy SCT003 SCT008 SCT014 73.8 70 88% 30.03 0.0
21 22:15 Calm 10.00 Rain SCT004 BKN008 OVC014 74.3 69.1 84% 30.03 0.0
21 21:55 SE 9 G 20 10.00 Rain SCT001 SCT006 BKN065 76.8 67.6 73% 78 30.02 0.0
21 21:35 S 8 G 16 10.00 Partly Cloudy SCT065 75.6 68.4 78% 77 30.01 0.0
21 21:15 S 9 G 18 10.00 Partly Cloudy SCT047 SCT065 78.1 66.9 69% 80 30.01 0.0
21 20:55 S 7 10.00 Mostly Cloudy SCT045 BKN050 80.8 68.5 66% 84 30 0.0
21 20:35 Calm 10.00 Partly Cloudy SCT050 80.8 68.5 66% 84 29.99 0.0
21 20:15 Calm 10.00 Fair CLR 81.5 68 64% 84 29.98 0.0
21 19:55 Calm 10.00 Fair CLR 82.2 68.4 63% 85 29.98 0.0
21 19:35 NE 3 10.00 Fair CLR 83.3 68 60% 86 29.98 0.0
21 19:15 NE 3 10.00 Fair CLR 84.6 67.8 57% 88 29.98 0.0
21 18:55 NE 3 10.00 Fair CLR 86 66.7 88 84.4 53% 89 29.97 0.0
21 18:35 E 3 10.00 Fair CLR 86.2 66 51% 88 29.97 0.0
21 18:15 E 7 10.00 Fair CLR 86.9 66.7 51% 90 29.98 0.0
21 17:55 NE 5 10.00 Fair CLR 87.1 66.6 51% 90 29.97 0.0
21 17:35 E 5 10.00 Fair CLR 87.4 65.7 48% 90 29.97 0.0
21 17:15 NE 3 10.00 Fair CLR 87.3 66.4 50% 90 29.97 0.0
21 16:35 NE 6 10.00 Fair CLR 87.4 67.6 52% 91 29.97 0.0
21 16:15 NE 6 10.00 Partly Cloudy SCT034 86.5 68.7 55% 90 29.97 0.0
21 15:55 E 6 10.00 Fair CLR 86.4 67.6 54% 90 29.98 0.0
21 15:35 Calm 10.00 Fair CLR 85.8 68 55% 89 29.98 0.0
21 15:15 N 7 10.00 Fair CLR 86.5 66.7 52% 89 29.99 0.0
21 14:55 N 5 10.00 Partly Cloudy SCT033 86.2 69.1 57% 90 30 0.0
21 14:35 N 7 10.00 Partly Cloudy SCT033 86.7 68.7 55% 91 30 0.0
21 14:15 NW 3 10.00 Fair CLR 85.3 68.2 57% 89 30.01 0.0
21 13:55 N 6 10.00 Partly Cloudy SCT028 84.7 69.1 59% 89 30.01 0.0
21 13:35 NW 5 10.00 Fair CLR 84.7 68.9 59% 89 30.02 0.0
21 13:15 NW 5 10.00 Partly Cloudy SCT030 SCT070 84.4 68.5 59% 88 30.03 0.0
21 12:55 Calm 10.00 Partly Cloudy SCT030 SCT070 84.9 68 85.5 70.7 57% 88 30.03 0.0
21 12:35 Calm 10.00 Fair CLR 85.1 68.9 58% 89 30.04 0.0
21 12:15 NW 3 10.00 Partly Cloudy SCT027 SCT070 84.2 69.1 61% 88 30.04 0.0
21 11:55 Calm 10.00 Partly Cloudy SCT029 SCT070 84.2 68.9 60% 88 30.04 0.0
21 11:35 W 3 10.00 Partly Cloudy SCT029 84.7 69.3 60% 89 30.04 0.0
21 11:15 SW 3 10.00 Partly Cloudy SCT029 84.4 67.5 57% 87 30.05 0.0
21 10:55 Calm 10.00 Fair CLR 82.9 66.6 58% 85 30.05 0.0
21 10:35 E 3 10.00 Fair CLR 82.8 65.5 56% 85 30.05 0.0
21 10:15 Calm 10.00 Fair CLR 81.7 65.1 57% 84 30.05 0.0
21 09:55 Calm 7.00 Fair CLR 79.9 66.6 64% 82 30.05 0.0
21 09:35 Calm 5.00 Fair with Haze CLR 78.4 67.3 69% 81 30.06 0.0
21 09:15 Calm 5.00 Fair with Haze CLR 78.1 66.6 68% 80 30.06 0.0
21 08:55 Calm 4.00 Partly Cloudy with Haze SCT030 SCT039 SCT060 75.6 67.1 75% 77 30.06 0.0
21 08:35 Calm 4.00 Partly Cloudy with Haze SCT048 74.3 66.6 77% 30.05 0.0
21 08:15 Calm 4.00 Fair with Haze CLR 73 66.2 79% 30.05 0.0
21 07:55 Calm 3.00 Fair with Haze CLR 72.5 66.4 81% 30.05 0.0
21 07:35 Calm 3.00 Fair with Haze CLR 72 65.8 81% 30.04 0.0
21 07:15 Calm 2.50 Fair with Haze CLR 71.1 66.4 85% 30.03 0.0
21 06:55 Calm 2.50 Fog/Mist CLR 71.1 67.5 72 69.4 88% 30.04 0.0
21 06:35 Calm 7.00 Fair CLR 71.2 66.9 86% 30.03 0.0
21 06:15 Calm 7.00 Fair CLR 71.6 66.2 83% 30.03 0.0
21 05:55 Calm 10.00 Fair CLR 72 65.3 80% 30.03 0.0
21 05:35 Calm 10.00 Fair CLR 71.6 65.7 82% 30.02 0.0
21 05:15 Calm 10.00 Fair CLR 71.6 66.6 84% 30.02 0.0
21 04:55 Calm 7.00 Fair CLR 71.2 67.1 87% 30.01 0.0
21 04:35 Calm 7.00 Fair CLR 71.2 66.9 86% 30.01 0.0
21 04:15 Calm 7.00 Fair CLR 71.8 66.6 84% 30.02 0.0
21 03:55 Calm 10.00 Fair CLR 71.1 67.5 88% 30.02 0.0
21 03:35 Calm 7.00 Fair CLR 71.1 67.5 88% 30.03 0.0
21 03:15 Calm 10.00 Fair CLR 71.8 66.9 85% 30.03 0.0
21 02:55 Calm 10.00 Fair CLR 70.7 66.6 87% 30.03 0.0
21 02:35 Calm 5.00 Fair with Haze CLR 71.6 66.4 84% 30.04 0.0
21 02:15 Calm 10.00 Fair CLR 70.9 67.1 88% 30.04 0.0
21 01:55 Calm 10.00 Fair CLR 70.3 67.1 90% 30.05 0.0
21 01:35 Calm 7.00 Fair CLR 70.7 67.3 89% 30.04 0.0
21 01:15 Calm 10.00 Fair CLR 70.9 67.3 88% 30.05 0.0
21 00:55 Calm 7.00 Fair CLR 70.7 66.7 85.5 70.5 87% 30.05 0.0
21 00:35 Calm 10.00 Fair CLR 70.9 67.3 88% 30.06 0.0
21 00:15 Calm 10.00 Fair CLR 70.9 67.1 88% 30.06 0.0
20 23:55 Calm 10.00 Fair CLR 70.9 66.7 87% 30.06 0.0
20 23:35 Calm 10.00 Fair CLR 71.4 67.3 87% 30.06 0.0
20 23:15 Calm 7.00 Fair CLR 72.1 67.6 86% 30.05 0.0
20 22:35 Calm 10.00 Fair CLR 72.5 67.6 85% 30.04 0.0
20 22:15 Calm 10.00 Fair CLR 73.2 68.5 85% 30.03 0.0
20 21:55 Calm 10.00 Fair CLR 73.6 68 83% 30.03 0.0
20 21:35 Calm 10.00 Fair CLR 73.6 67.3 81% 30.03 0.0
20 21:15 Calm 10.00 Fair CLR 74.5 67.6 79% 30.03 0.0
20 20:55 Calm 10.00 Fair CLR 77.9 65.3 65% 80 30.02 0.0
20 20:35 Calm 10.00 Fair CLR 79.2 64.9 62% 81 30.02 0.0
20 20:15 Calm 7.00 Fair CLR 80.6 64.4 58% 82 30.02 0.0
20 19:55 Calm 10.00 Fair CLR 82.4 64.2 54% 84 30.01 0.0
20 19:35 Calm 10.00 Fair CLR 83.8 62.4 49% 85 30.01 0.0
20 19:15 Calm 10.00 Fair CLR 84.9 62.2 47% 86 30.01 0.0
20 18:55 E 3 10.00 Fair CLR 85.5 61.7 87.6 83.1 45% 86 30.01 0.0
20 18:35 NE 3 10.00 Fair CLR 85.6 61.9 45% 86 30.02 0.0
20 18:15 E 5 10.00 Fair CLR 86 61 43% 86 30.02 0.0
20 17:55 E 7 10.00 Fair CLR 86.5 61.9 44% 87 30.02 0.0
20 17:35 E 6 10.00 Partly Cloudy SCT050 SCT060 87.3 61.5 42% 87 30.03 0.0
20 17:15 NE 3 10.00 Fair CLR 87.1 60.4 41% 87 30.03 0.0
20 16:55 NE 5 10.00 Fair CLR 85.1 61.9 46% 86 30.03 0.0
20 16:35 E 5 10.00 Fair CLR 87.3 60.4 41% 87 30.03 0.0
20 16:15 E 7 10.00 Fair CLR 86.5 63 45% 87 30.04 0.0
20 15:55 E 5 10.00 Fair CLR 86.9 62.4 44% 88 30.04 0.0
20 15:35 NE 6 10.00 Fair CLR 86.5 61.9 44% 87 30.05 0.0
20 15:15 NE 3 10.00 Partly Cloudy SCT047 84.6 61.7 46% 85 30.05 0.0
20 14:55 NE 6 10.00 Fair CLR 85.8 62.6 46% 87 30.06 0.0
20 14:35 Calm 10.00 Partly Cloudy SCT046 SCT075 85.1 63 48% 86 30.06 0.0
20 14:15 N 5 10.00 Fair CLR 85.1 62.4 47% 86 30.07 0.0
20 13:55 N 6 10.00 Partly Cloudy SCT041 SCT048 84.9 63.9 49% 86 30.07 0.0
20 13:35 Calm 10.00 Partly Cloudy SCT041 84.7 63.3 49% 86 30.08 0.0
20 13:15 NW 6 10.00 Fair CLR 84.2 62.6 48% 85 30.08 0.0
20 12:55 N 5 10.00 Fair CLR 83.3 64.9 83.5 66.2 54% 85 30.08 0.0
20 12:35 NW 5 10.00 Fair CLR 82.9 63.5 52% 84 30.09 0.0
20 12:15 NW 5 10.00 Partly Cloudy SCT036 82.6 64.2 54% 84 30.09 0.0
20 11:55 N 3 10.00 Fair CLR 82.2 65.3 57% 84 30.09 0.0
20 11:35 Calm 10.00 Fair CLR 81 64.9 58% 83 30.1 0.0
20 11:15 N 5 10.00 Fair CLR 82.2 66 58% 84 30.1 0.0
20 10:55 Calm 10.00 Fair CLR 80.8 64.9 59% 83 30.09 0.0
20 10:35 Calm 10.00 Fair CLR 80.1 64.2 59% 82 30.1 0.0
20 10:15 SE 3 10.00 Fair CLR 79 64.2 61% 81 30.1 0.0
20 09:55 E 7 10.00 Fair CLR 78.1 63.9 62% 80 30.1 0.0
20 09:35 Calm 10.00 Fair CLR 77.9 65.5 66% 80 30.09 0.0
20 09:15 Calm 10.00 Fair CLR 75.7 67.5 76% 77 30.09 0.0
20 08:55 Calm 10.00 Fair CLR 74.3 68.2 81% 30.09 0.0
20 08:35 Calm 10.00 Fair CLR 72.7 67.6 84% 30.08 0.0
20 08:15 Calm 10.00 Fair CLR 70.9 66.6 86% 30.09 0.0
20 07:55 Calm 10.00 Fair CLR 69.8 66 88% 30.09 0.0
20 07:35 Calm 10.00 Fair CLR 68 65.7 92% 30.08 0.0
20 07:15 Calm 7.00 Fair CLR 66.6 64.8 94% 30.06 0.0
20 06:55 Calm 5.00 Fog/Mist CLR 66 64.2 69.8 65.3 94% 30.07 0.0
20 06:35 Calm 7.00 Fair CLR 65.5 63.7 94% 30.07 0.0
20 06:15 Calm 7.00 Fair CLR 65.5 63.7 94% 30.07 0.0
20 05:55 Calm 7.00 Fair CLR 65.5 63.7 94% 30.08 0.0
20 05:35 Calm 7.00 Fair CLR 65.5 63.5 93% 30.07 0.0
20 05:15 Calm 10.00 Fair CLR 66.6 64.2 92% 30.05 0.0
20 04:55 Calm 10.00 Fair CLR 66.2 63.7 92% 30.05 0.0
20 04:35 Calm 10.00 Fair CLR 65.8 63.7 93% 30.04 0.0
20 04:15 Calm 10.00 Fair CLR 66.2 63.7 92% 30.04 0.0
20 03:55 Calm 10.00 Fair CLR 66.7 64 91% 30.04 0.0
20 03:35 Calm 10.00 Fair CLR 67.6 64.6 90% 30.04 0.0
20 03:15 Calm 10.00 Fair CLR 66.6 64 92% 30.04 0.0
20 02:55 Calm 10.00 Fair CLR 67.5 64.9 92% 30.02 0.0
20 02:35 Calm 10.00 Fair CLR 67.1 64.4 91% 30.04 0.0
20 02:15 Calm 10.00 Fair CLR 67.6 64.4 89% 30.03 0.0
20 01:55 Calm 10.00 Fair CLR 67.8 64.4 89% 30.03 0.0
20 01:35 Calm 10.00 Fair CLR 68.9 65.3 88% 30.03 0.0
20 01:15 Calm 10.00 Fair CLR 68.9 65.7 89% 30.04 0.0
20 00:55 Calm 10.00 Fair CLR 68.7 65.1 84.2 68 88% 30.05 0.0 0.01 0.01
20 00:35 Calm 10.00 Fair CLR 68 64.6 89% 30.05 0.0 0.01
20 00:15 Calm 10.00 Fair CLR 68.2 64.8 89% 30.05 0.0 0.01
19 23:55 Calm 10.00 Fair CLR 68.5 65.3 89% 30.06 0.0
19 23:35 Calm 10.00 Fair CLR 69.3 65.3 87% 30.05 0.0
19 23:15 Calm 10.00 Fair CLR 70 65.5 86% 30.05 0.0
19 22:55 Calm 10.00 Fair CLR 70.9 65.7 84% 30.05 0.0
19 22:35 Calm 10.00 Fair CLR 71.6 65.1 80% 30.04 0.0
19 22:15 Calm 10.00 Fair CLR 71.8 65.3 80% 30.03 0.0
19 21:55 Calm 10.00 Fair CLR 71.4 66.2 84% 30.03 0.0
19 21:35 Calm 10.00 Fair CLR 74.3 65.7 75% 30.03 0.0
19 21:15 Calm 10.00 Fair CLR 74.7 65.3 73% 30.02 0.0
19 20:55 Calm 10.00 Fair CLR 76.1 64.6 68% 78 30.02 0.0
19 20:35 Calm 10.00 Fair CLR 77.7 63.5 62% 79 30.02 0.0
19 20:15 Calm 10.00 Fair CLR 79 63.1 58% 81 30.02 0.0
19 19:55 Calm 10.00 Fair CLR 80.4 63 55% 82 30.01 0.0
19 19:35 Calm 10.00 Fair CLR 82.2 61.2 49% 83 30.02 0.0
19 19:15 N 5 10.00 Fair CLR 83.5 60.4 46% 84 30.02 0.0
19 18:55 N 3 10.00 Fair CLR 84.2 59 86.2 83.3 43% 84 30.01 0.0
19 18:35 NE 5 10.00 Fair CLR 84.6 59.4 43% 84 30.01 0.0
19 18:15 N 5 10.00 Fair CLR 83.8 58.8 43% 84 30.01 0.0
19 17:55 N 5 10.00 Fair CLR 85.5 57.7 39% 85 30.01 0.0
19 17:35 N 3 10.00 Fair CLR 83.8 59.5 44% 84 30.01 0.0
19 17:15 N 5 10.00 Fair CLR 85.5 59 41% 85 30.02 0.0
19 16:55 NE 5 10.00 Fair CLR 83.7 59.9 45% 84 30.02 0.0
19 16:35 NE 7 10.00 Fair CLR 85.1 59.2 42% 85 30.02 0.0
19 16:15 N 6 10.00 Fair CLR 84.6 58.6 41% 84 30.03 0.0
19 15:55 N 6 10.00 Fair CLR 85.8 58.1 39% 85 30.03 0.0
19 15:35 N 10 10.00 Partly Cloudy SCT050 85.3 58.6 41% 85 30.03 0.0
19 15:15 N 6 10.00 Partly Cloudy SCT050 85.6 59.9 42% 85 30.03 0.0
19 14:55 NE 7 10.00 Fair CLR 84.6 59.5 43% 84 30.04 0.0
19 14:35 N 6 10.00 Fair CLR 84.7 59.7 43% 85 30.05 0.0
19 14:15 N 7 10.00 Fair CLR 84.7 59.2 42% 84 30.05 0.0
19 13:55 N 9 10.00 Partly Cloudy SCT049 85.1 59.7 42% 85 30.06 0.0
19 13:35 NE 8 10.00 Fair CLR 84 61.7 47% 85 30.06 0.0
19 13:15 NE 12 G 17 10.00 Fair CLR 84.2 59.7 44% 84 30.07 0.0
19 12:55 N 7 10.00 Fair CLR 83.8 61.9 83.8 70.2 48% 84 30.08 0.0 0.01
19 12:35 N 9 10.00 Fair CLR 83.3 62.2 49% 84 30.08 0.0
19 12:15 N 6 10.00 Fair CLR 82.4 61.9 50% 83 30.09 0.0
Date Time (cdt) Wind (mph) Vis. (mi.) Weather Sky Cond. Air Dwpt Max. Min. Relative Humidity Wind Chill (°F) Heat Index (°F) altimeter (in) sea level (mb) 1 hr 3 hr 6 hr
6 hour
Temperature (ºF) Pressure Precipitation (in)